Retour au catalogue

SL-8 DEB

ActifLEO
NORAD 39696·DEBRIS·🇷🇺 Russia

Lancé Feb 12, 1991 depuis Plesetsk Cosmodrome

Loading…

Prochains Passages (prochaines 24 heures)

TLE

PériméSource: Space-Track

Époque: Aug 20, 2026, 07:13 UTC

1 39696U 91009DK  26232.30136134  .00000052  00000-0  58742-3 0  9994
2 39696  74.0457  98.1124 0179357 151.9826 209.1006 12.22153488550331

Suivez SL-8 DEB en temps réel avec AllMySat

Download on the App Store